Location: Bilsen
(53.7722°N, 9.8765°E)
Time: 10:23:27
(UTC+00:00)

Nadezhda 3 Rocket - Pass Details

Date: 18 February 2020
Orbit: 957 x 1000 km, 82.9° (Epoch: 29 March)

Event Time Altitude Azimuth Distance (km) Brightness Sun altitude
Exits shadow 03:07:35 82° 99° (E) 1,004 4.0 -30.8°
Maximum altitude 03:07:35 82° 98° (E) 1,004 4.0 -30.8°
Drops below altitude 10° 03:13:57 10° 12° (NNE) 2,772 6.7 -29.9°
Sets 03:16:30 0° 12° (NNE) 3,730 7.5 -29.5°
